Content
SEND FEEDBACK

Daily
Averages
Monthly
Summary
United States of America

ST. LOUIS, MISSOURI


Home > North America > United States > Missouri
Elevation: 535 feet     Latitude: 38 45N     Longitude: 090 22W

WEATHER
 
SELECT A DAY
Number of Records: 196,318;   Date Range: 1/1/95 - 7/23/14
 
SHARE

PRINT THIS DATA

[ ← Previous Day ]
WEATHER ALMANAC - NOVEMBER 22, 2013
[ Next Day → ]
[ °C ]   °F
Weather ElementAverageHighLow
Temperature39.1 °F50 °F (12:17 am)33.1 °F (11:54 pm)
Dewpoint34.7 °F48.2 °F (12:17 am)28 °F (11:54 pm)
Humidity84.5 %97 % (12:54 am)75 % (2:38 pm)
Barometer30.43 in30.56 in (5:54 pm)30.21 in (12:17 am)
Wind Speed10.1 mph15 mph (6:54 am)
Wind Gust19.6 mph (3:54 am)
Weather ElementAverage
Visibility8.2 mi
Wind DirectionNNW (334.5 °)

Weather ElementTotal
Precipitation0.04 in
Heating Degree Days23.5 (Base 65)
Averaged from 33 records on November 22, 2013
WEATHER CONDITIONS BREAKOUT
WIND DIRECTION BREAKOUT
WEATHER BY HOUR - NOVEMBER 22, 2013
[ °C ]   °F
Local TimeTemperatureDewpointHumidityBarometerVisibilityWind DirectionWind SpeedGust SpeedPrecipitationEventsConditions
12:17 AM50.0 °F48.2 °F94 %30.21 in3.0 miNNW (330°)8.1 mph0.01 inRainLight Rain
12:24 AM50.0 °F48.2 °F94 %30.21 in2.5 miNNW (340°)10.4 mph0.01 inRainLight Rain
12:49 AM48.2 °F46.4 °F93 %30.22 in2.0 miNNW (340°)9.2 mph0.01 inOvercast
12:54 AM48.9 °F48.0 °F97 %30.22 in2.0 miNNW (340°)6.9 mph0.01 inOvercast
1:52 AM46.4 °F44.6 °F93 %30.26 in4.0 miNorth (350°)9.2 mphOvercast
1:54 AM46.0 °F44.1 °F93 %30.27 in5.0 miNNW (340°)9.2 mphOvercast
2:54 AM44.1 °F42.1 °F93 %30.27 in6.0 miNNW (330°)11.5 mphOvercast
3:54 AM43.0 °F39.9 °F89 %30.31 in9.0 miNNW (330°)9.2 mph19.6 mphOvercast
4:54 AM39.0 °F37.0 °F93 %30.35 in10.0 miNW (310°)12.7 mphOvercast
5:54 AM37.9 °F36.0 °F93 %30.38 in3.0 miNW (320°)9.2 mphOvercast
6:54 AM37.0 °F34.0 °F89 %30.41 in10.0 miNW (320°)15.0 mphOvercast
7:36 AM37.4 °F33.8 °F87 %30.42 in10.0 miNW (320°)11.5 mphOvercast
7:54 AM37.0 °F34.0 °F89 %30.44 in9.0 miNW (310°)13.8 mph19.6 mphOvercast
8:54 AM37.0 °F34.0 °F89 %30.45 in8.0 miNW (320°)13.8 mph19.6 mphOvercast
9:54 AM37.0 °F33.1 °F86 %30.48 in7.0 miNNW (330°)12.7 mphOvercast
10:54 AM37.0 °F33.1 °F86 %30.50 in10.0 miNNW (340°)12.7 mphOvercast
11:54 AM37.0 °F32.0 °F82 %30.48 in10.0 miNNW (330°)13.8 mphOvercast
12:54 PM37.0 °F32.0 °F82 %30.46 in10.0 miNNW (330°)12.7 mphOvercast
1:54 PM37.9 °F32.0 °F79 %30.47 in10.0 miNNW (340°)8.1 mphOvercast
2:38 PM37.4 °F30.2 °F75 %30.45 in10.0 miNNW (340°)11.5 mph18.4 mphOvercast
2:54 PM37.9 °F30.9 °F76 %30.49 in10.0 miNNW (340°)10.4 mphOvercast
3:24 PM37.4 °F30.2 °F75 %30.50 in10.0 miNNW (340°)12.7 mphOvercast
3:54 PM36.0 °F30.9 °F82 %30.53 in10.0 miNNW (330°)10.4 mphOvercast
4:54 PM36.0 °F30.0 °F79 %30.55 in10.0 miNorth (350°)6.9 mphOvercast
5:13 PM35.6 °F30.2 °F81 %30.53 in10.0 miNNW (340°)9.2 mphOvercast
5:54 PM36.0 °F30.0 °F79 %30.56 in10.0 miNNW (330°)9.2 mphOvercast
6:54 PM36.0 °F28.9 °F76 %30.55 in10.0 miNorth (360°)9.2 mphOvercast
7:54 PM36.0 °F28.9 °F76 %30.55 in10.0 miNNW (340°)4.6 mphMostly Cloudy
8:54 PM36.0 °F28.9 °F76 %30.55 in10.0 miNNW (330°)6.9 mphOvercast
9:54 PM36.0 °F28.9 °F76 %30.56 in10.0 miNNW (340°)5.8 mphOvercast
10:54 PM35.1 °F28.9 °F78 %30.55 in10.0 miNorth (350°)8.1 mphMostly Cloudy
11:06 PM35.6 °F28.4 °F75 %30.53 in10.0 miNorth (350°)9.2 mphScattered Clouds
11:54 PM33.1 °F28.0 °F82 %30.56 in10.0 miNNW (330°)8.1 mphPartly Cloudy
Hourly data recorded from KSUS, located miles away from St. Louis, Missouri







STORIES FROM OUR PARTNERS